CYYC

Calgary International Airport

Airport
ICAO code
CYYC
IATA Code
YYC
Summary
ICAO Region
NAM
ICAO Territory
Location

Calgary, Alberta

Serving
Calgary
Elevation
3557 ft
Coordinates
51° 7' 7" N , 114° 1' 14" W
KCC
Airport LOS
Parallel Runway Operation
Metar
CYYC 150000Z 11007KT 090V160 15SM SCT280 BKN350 16/M07 A2980 RMK CC3CI2 SLP117 DENSITY ALT 4800FT

Description

International airport serving Calgary, Alberta.

Climatology

Humid Continental climate (Köppen climate classification Dfb) - Variable weather patterns and a large seasonal temperature variance. Summers are often warm and humid with frequent thunderstorms and winters can be very cold with frequent snowfall and persistent snow cover.

Runways

Designator Length Width Surface Rops
7/25 1890 46 ASP Yes/Yes
10/28 2438 61 ASP Yes/Yes
16/34 3863 61 ASP Yes/Yes

SKYbrary Partners:

Safety knowledge contributed by: